TimeCST,TemperatureF,Dew PointF,Humidity,Sea Level PressureIn,VisibilityMPH,Wind Direction,Wind SpeedMPH,Gust SpeedMPH,PrecipitationIn,Events,Conditions,WindDirDegrees,DateUTC
12:00 AM,69,66,86,29.85,12,North,3.5,,,,Mostly Cloudy,350,2013-05-29 06:00:00
12:00 AM,69.8,66.2,88,30.05,6.2,North,3.5,-,N/A,,Scattered Clouds,350,2013-05-29 06:00:00
1:00 AM,68.0,66.2,94,30.02,6.2,ESE,2.3,-,N/A,,Scattered Clouds,120,2013-05-29 07:00:00
2:00 AM,68.0,64.4,88,30.00,6.2,NE,6.9,-,N/A,,Mostly Cloudy,40,2013-05-29 08:00:00
3:00 AM,66,63,86,29.87,12,ENE,5.8,,,,Clear,60,2013-05-29 09:00:00
3:00 AM,66.2,62.6,88,29.97,-9999.0,ENE,5.8,-,N/A,,Clear,60,2013-05-29 09:00:00
4:00 AM,66.2,60.8,83,29.97,-9999.0,ENE,5.8,-,N/A,,Clear,60,2013-05-29 10:00:00
5:00 AM,66.2,60.8,83,29.97,-9999.0,ENE,3.5,-,N/A,,Clear,60,2013-05-29 11:00:00
5:40 AM,64.4,60.8,88,29.99,6.2,SSW,2.3,-,N/A,,Mostly Cloudy,200,2013-05-29 11:40:00
6:00 AM,66,62,81,,6,Calm,Calm,,,,Overcast,,2013-05-29 12:00:00
6:00 AM,66.2,60.8,83,29.99,6.2,Calm,Calm,-,N/A,,Mostly Cloudy,0,2013-05-29 12:00:00
6:05 AM,66.2,62.6,88,29.99,0.3,Calm,Calm,-,N/A,Fog,Fog,0,2013-05-29 12:05:00
7:00 AM,66.2,64.4,94,30.00,0.9,East,3.5,-,N/A,,Mostly Cloudy,80,2013-05-29 13:00:00
7:27 AM,69.8,64.4,83,30.01,5.0,ESE,2.3,-,N/A,Fog,Fog,110,2013-05-29 13:27:00
8:00 AM,73.4,64.4,73,30.01,6.2,Calm,Calm,-,N/A,,Mostly Cloudy,0,2013-05-29 14:00:00
9:00 AM,77,65,59,29.84,12,Calm,Calm,,,,Overcast,,2013-05-29 15:00:00
9:00 AM,77.0,66.2,69,30.01,6.2,Calm,Calm,-,N/A,,Mostly Cloudy,0,2013-05-29 15:00:00
10:00 AM,77.0,66.2,69,30.02,6.2,WSW,6.9,-,N/A,,Mostly Cloudy,240,2013-05-29 16:00:00
11:00 AM,78.8,66.2,65,30.01,6.2,SW,9.2,-,N/A,,Mostly Cloudy,230,2013-05-29 17:00:00
12:00 PM,79,65,54,29.80,12,SW,13.8,,,,Partly Cloudy,230,2013-05-29 18:00:00
12:00 PM,78.8,64.4,61,29.99,6.2,SW,13.8,-,N/A,,Scattered Clouds,230,2013-05-29 18:00:00
1:00 PM,77.0,68.0,74,29.97,6.2,SW,11.5,-,N/A,,Scattered Clouds,230,2013-05-29 19:00:00
2:00 PM,73.4,66.2,78,29.96,6.2,SSW,10.4,-,N/A,Rain-Thunderstorm,Light Rain,200,2013-05-29 20:00:00
3:00 PM,70,67,86,29.84,5,SSW,5.8,,,Rain,Light Rain Showers,210,2013-05-29 21:00:00
3:00 PM,69.8,66.2,88,29.97,5.0,SSW,5.8,-,N/A,Fog-Rain,Rain,210,2013-05-29 21:00:00
3:08 PM,68.0,66.2,94,29.98,0.3,NNW,3.5,-,N/A,Rain-Thunderstorm,Heavy Thunderstorms and Rain,330,2013-05-29 21:08:00
3:30 PM,68.0,66.2,94,29.99,1.2,SE,9.2,-,N/A,Rain-Thunderstorm,Thunderstorms and Rain,140,2013-05-29 21:30:00
4:00 PM,66.2,64.4,94,30.00,1.2,East,3.5,-,N/A,Rain-Thunderstorm,Thunderstorms and Rain,80,2013-05-29 22:00:00
5:00 PM,68.0,66.2,94,30.01,1.2,NNW,3.5,-,N/A,Rain,Rain,340,2013-05-29 23:00:00
6:00 PM,68,66,91,29.87,3,NNW,3.5,,,Rain,Light Rain,330,2013-05-30 00:00:00
6:00 PM,68.0,66.2,94,30.02,3.1,NNW,3.5,-,N/A,Rain,Light Rain,330,2013-05-30 00:00:00
7:00 PM,68.0,66.2,94,30.02,1.9,SSW,2.3,-,N/A,Rain,Light Rain,200,2013-05-30 01:00:00
8:00 PM,68.0,66.2,94,30.02,5.0,WSW,2.3,-,N/A,Fog,Fog,240,2013-05-30 02:00:00
9:00 PM,67,66,94,29.86,12,NNW,3.5,,,,Overcast,330,2013-05-30 03:00:00
9:00 PM,68.0,66.2,94,30.02,6.2,NNW,3.5,-,N/A,,Mostly Cloudy,330,2013-05-30 03:00:00
10:00 PM,68.0,66.2,94,30.05,6.2,West,2.3,-,N/A,,Mostly Cloudy,260,2013-05-30 04:00:00
11:00 PM,68.0,66.2,94,30.05,6.2,Calm,Calm,-,N/A,,Mostly Cloudy,0,2013-05-30 05:00:00